Weather in Stepnaya Vasilyevka

Russia / Ulyanovsk Oblast     54°03′29″N   49°30′46″E
temp.,
°C
wind,
m/s
gust,
m/s
humid.,
%
clouds,
%
prec.,
mm/h
press.,
hPa
HPBL,
m
27 february, sat
sat2701:00−8sse71394100 4.8 1000542
04:00−6sse4796100 6.6 998240
07:00−3ssw4897100 0.9 997221
10:00+1sw51099100 1.6 997414
13:00+1sw59100100 0.1 996383
16:000wsw47100100 0.7 996294
19:00−2nnw5797100 1.3 997248
22:00−9nnw6109399 1.9 999336
28 february, sun
sun2801:00−11nnw61192100 0.1 1000426
04:00−13nnw61291100 0.2 1003411
07:00−16nw61193100 0.0 1005315
10:00−16nw6109398 0.1 1007371
13:00−15nw6992100 0.1 1009452
16:00−14nw6991100 0.1 1011500
19:00−15nw4993100 0.1 1012322
22:00−17nnw459699 0.1 1015101
1 march, mon
mon101:00−20nnw349740 0.0 101657
04:00−21nnw349733 0.0 101958
07:00−22nnw349741 0.0 102045
10:00−20nnw369439 0.0 1022233
13:00−16nw349044 0.0 1023329
16:00−15wnw359260 0.0 1023255
19:00−20nw229615 0.0 102320
22:00−20ssw22948 0.0 102320
2 march, tue
tue201:00−20ssw34980 0.0 102154
04:00−18ssw599725 0.0 1019144
07:00−16ssw61195100 0.0 1015231
10:00−13ssw71394100 0.1 1012337
13:00−9ssw81394100 0.8 1009454
16:00−6ssw81394100 2.0 1006575
19:00−4ssw71295100 1.1 1003473
22:00−2ssw61097100 2.3 1002399
3 march, wed
wed301:00−3ssw479798 0.8 1000195
04:00−3w229899 1.9 100077
07:00−2nnw61097100 1.1 1000520
10:00−4nw61092100 1.6 1002503
13:00−3nw6109199 0.0 1003507
16:00−3nw698896 0.1 1004701
19:00−4nw51093100 0.1 1005553
22:00−5nw51194100 0.1 1007315